This is the latest recevied weather packets stored in our database for station/object KC3WWU. If no packets are shown the sender has not sent any weather packets the latest 10 day(s).
| Time | Temp. | Humidity | Pressure | Rain* | Wind** | Luminosity | Snow |
|---|---|---|---|---|---|---|---|
| 1777740887 | 5.56° C | 76% | 1011.5 hPa | 0 mm | - | 920 W/m² | - |
| 1777740584 | 5.56° C | 76% | 1011.8 hPa | 0 mm | - | 148 W/m² | - |
| 1777740280 | 5.56° C | 76% | 1011.7 hPa | 0 mm | - | 110 W/m² | - |
| 1777739976 | 5.56° C | 76% | 1011.8 hPa | 0 mm | - | 88 W/m² | - |
| 1777739668 | 6.11° C | 75% | 1012 hPa | 0 mm | - | 117 W/m² | - |
| 1777739366 | 6.11° C | 73% | 1012 hPa | 0 mm | - | 223 W/m² | - |
| 1777739062 | 6.11° C | 72% | 1012 hPa | 0 mm | - | 225 W/m² | - |
| 1777738759 | 5.56° C | 74% | 1012 hPa | 0 mm | - | 242 W/m² | - |
| 1777738455 | 6.11° C | 74% | 1012 hPa | 0 mm | - | 246 W/m² | - |
| 1777738154 | 6.11° C | 73% | 1012.1 hPa | 0 mm | - | 239 W/m² | - |
| 1777737851 | 6.11° C | 75% | 1012.1 hPa | 0 mm | - | 253 W/m² | - |
| 1777737550 | 6.11° C | 75% | 1012.3 hPa | 0 mm | - | 221 W/m² | - |
| 1777737248 | 5.56° C | 74% | 1012.1 hPa | 0 mm | - | 227 W/m² | - |
| 1777736943 | 5.56° C | 74% | 1012.2 hPa | 0 mm | - | 284 W/m² | - |
| 1777736037 | 5.56° C | 73% | 1012.2 hPa | 0 mm | - | 169 W/m² | - |
| 1777735734 | 5.56° C | 76% | 1012 hPa | 0 mm | - | 139 W/m² | - |
| 1777735432 | 5.56° C | 74% | 1011.8 hPa | 0 mm | - | 231 W/m² | - |
| 1777735129 | 5.56° C | 76% | 1012 hPa | 0 mm | - | 216 W/m² | - |
| 1777734825 | 5.56° C | 74% | 1012 hPa | 0 mm | - | 255 W/m² | - |
| 1777734523 | 5.56° C | 75% | 1012.1 hPa | 0 mm | - | 221 W/m² | - |
| 1777734219 | 5° C | 76% | 1012.1 hPa | 0 mm | - | 242 W/m² | - |
| 1777733916 | 5.56° C | 76% | 1012.2 hPa | 0 mm | - | 186 W/m² | - |
| 1777733612 | 5.56° C | 77% | 1012.1 hPa | 0 mm | - | 185 W/m² | - |
| 1777733309 | 5.56° C | 78% | 1012.1 hPa | 0 mm | - | 247 W/m² | - |
| 1777733006 | 5° C | 79% | 1012.2 hPa | 0 mm | - | 254 W/m² | - |
* Rain latest hour (hover to see other rain measurements)
** Current wind speed in m/s (hover to see current wind gust speed)